Weather History for Selawik, AK

Change the Weather History Date:

Wednesday, August 13, 2014

  Actual Average Record
Temperature  
Mean Temperature 63 °F -  
Max Temperature 69 °F 55 °F 77 °F (2005)
Min Temperature 57 °F 46 °F 44 °F (1996)
Degree Days  
Heating Degree Days 2    
Growing Degree Days 13 (Base 50)    
Moisture  
Dew Point 54 °F    
Average Humidity 72    
Maximum Humidity 88    
Minimum Humidity 56    
Precipitation  
Precipitation 0.00 in - - ()
Sea Level Pressure  
Sea Level Pressure 29.60 in    
Wind  
Wind Speed 10 mph (ENE)    
Max Wind Speed 17 mph    
Max Gust Speed -    
Visibility 10 miles    
Events      
Averages and records for this station are not official NWS values.
T = Trace of Precipitation, MM = Missing Value Source: NWS Daily Summary

Daily Weather History Graph

Daily Weather History Graph

Search for Another Location

Airport:

Trip Planner

Search our weather history database for the weather conditions in past years. The results will help you decide how hot, cold, wet, or windy it might be!

Date:

Astronomy

Aug. 13, 2014 Rise Set
Actual Time 6:06 AM AKDT 11:20 PM AKDT
Civil Twilight 4:41 AM AKDT 12:42 AM AKDT
Nautical Twilight Sun does not rise Sun does not rise
Astronomical Twilight Sun does not rise Sun does not rise
Moon 11:01 PM AKDT (8/13) 11:48 AM AKDT (8/13)
Length of Visible Light 20h 01m
Length of Day
17h 14m
Waning Gibbous, 86% of the Moon is Illuminated
Aug 13
Waning Gibbous
Aug 17
Last Quarter
Aug 25
New
Sep 2
First Quarter
Sep 8
Full

Hourly Weather History & Observations

Time (AKDT) Temp. Dew Point Humidity Pressure Visibility Wind Dir Wind Speed Gust Speed Precip Events Conditions
12:16 AM 64.4 °F 55.4 °F 73% 29.57 in 10.0 mi East 5.8 mph - N/A   Overcast
12:36 AM 62.6 °F 55.4 °F 77% 29.57 in 10.0 mi East 6.9 mph - N/A   Overcast
12:56 AM 62.6 °F 55.4 °F 77% 29.58 in 10.0 mi East 6.9 mph - N/A   Overcast
1:16 AM 60.8 °F 53.6 °F 77% 29.58 in 10.0 mi East 8.1 mph - N/A   Mostly Cloudy
1:36 AM 60.8 °F 53.6 °F 77% 29.58 in 10.0 mi ENE 10.4 mph - N/A   Mostly Cloudy
1:56 AM 60.8 °F 53.6 °F 77% 29.58 in 10.0 mi ENE 8.1 mph - N/A   Mostly Cloudy
2:16 AM 60.8 °F 53.6 °F 77% 29.58 in 10.0 mi NE 6.9 mph - N/A   Mostly Cloudy
2:36 AM 60.8 °F 53.6 °F 77% 29.58 in 10.0 mi ENE 11.5 mph - N/A   Partly Cloudy
2:56 AM 60.8 °F 53.6 °F 77% 29.58 in 10.0 mi NE 9.2 mph - N/A   Clear
3:16 AM 60.8 °F 53.6 °F 77% 29.59 in 10.0 mi ENE 9.2 mph - N/A   Clear
3:36 AM 60.8 °F 53.6 °F 77% 29.59 in 10.0 mi NE 8.1 mph - N/A   Clear
4:36 AM 60.8 °F 53.6 °F 77% 29.59 in 10.0 mi ENE 12.7 mph - N/A   Mostly Cloudy
4:56 AM 59.0 °F 51.8 °F 77% 29.59 in 10.0 mi ENE 11.5 mph - N/A   Clear
5:16 AM 59.0 °F 51.8 °F 77% 29.59 in 10.0 mi ENE 13.8 mph - N/A   Clear
5:36 AM 59.0 °F 51.8 °F 77% 29.59 in 10.0 mi ENE 16.1 mph - N/A   Clear
6:16 AM 57.2 °F 51.8 °F 82% 29.59 in 10.0 mi NE 12.7 mph - N/A   Clear
6:36 AM 57.2 °F 51.8 °F 82% 29.59 in 10.0 mi NE 11.5 mph - N/A   Clear
7:16 AM 57.2 °F 51.8 °F 82% 29.60 in 10.0 mi ENE 12.7 mph - N/A   Clear
7:36 AM 57.2 °F 53.6 °F 88% 29.60 in 10.0 mi ENE 15.0 mph - N/A   Clear
7:56 AM 57.2 °F 53.6 °F 88% 29.60 in 10.0 mi ENE 15.0 mph - N/A   Clear
8:16 AM 59.0 °F 53.6 °F 82% 29.61 in 10.0 mi ENE 13.8 mph - N/A   Partly Cloudy
8:36 AM 59.0 °F 53.6 °F 82% 29.61 in 10.0 mi ENE 13.8 mph - N/A   Mostly Cloudy
8:56 AM 59.0 °F 53.6 °F 82% 29.61 in 10.0 mi ENE 16.1 mph - N/A   Scattered Clouds
9:16 AM 59.0 °F 51.8 °F 77% 29.62 in 10.0 mi ENE 15.0 mph - N/A   Clear
9:36 AM 59.0 °F 51.8 °F 77% 29.61 in 10.0 mi ENE 16.1 mph - N/A   Clear
9:56 AM 60.8 °F 53.6 °F 77% 29.61 in 10.0 mi ENE 13.8 mph - N/A   Clear
10:16 AM 60.8 °F 53.6 °F 77% 29.62 in 10.0 mi ENE 13.8 mph - N/A   Clear
10:36 AM 60.8 °F 53.6 °F 77% 29.61 in 10.0 mi ENE 17.3 mph - N/A   Clear
10:56 AM 60.8 °F 53.6 °F 77% 29.61 in 10.0 mi ENE 17.3 mph - N/A   Clear
11:16 AM 62.6 °F 53.6 °F 72% 29.61 in 10.0 mi ENE 16.1 mph - N/A   Clear
11:36 AM 62.6 °F 53.6 °F 72% 29.62 in 10.0 mi East 15.0 mph - N/A   Clear
11:56 AM 64.4 °F 53.6 °F 68% 29.62 in 10.0 mi East 17.3 mph - N/A   Clear
12:16 PM 64.4 °F 53.6 °F 68% 29.62 in 10.0 mi East 15.0 mph - N/A   Clear
12:36 PM 64.4 °F 51.8 °F 64% 29.62 in 10.0 mi East 16.1 mph - N/A   Clear
12:56 PM 66.2 °F 53.6 °F 64% 29.61 in 10.0 mi East 15.0 mph - N/A   Clear
1:16 PM 66.2 °F 53.6 °F 64% 29.62 in 10.0 mi East 10.4 mph - N/A   Clear
1:36 PM 66.2 °F 55.4 °F 68% 29.61 in 10.0 mi ENE 13.8 mph - N/A   Mostly Cloudy
1:56 PM 66.2 °F 53.6 °F 64% 29.61 in 10.0 mi East 16.1 mph - N/A   Partly Cloudy
2:16 PM 66.2 °F 53.6 °F 64% 29.61 in 10.0 mi East 16.1 mph - N/A   Clear
2:36 PM 66.2 °F 53.6 °F 64% 29.61 in 10.0 mi East 16.1 mph - N/A   Clear
2:56 PM 66.2 °F 53.6 °F 64% 29.61 in 10.0 mi East 16.1 mph - N/A   Partly Cloudy
3:16 PM 66.2 °F 53.6 °F 64% 29.61 in 10.0 mi East 15.0 mph - N/A   Partly Cloudy
3:36 PM 66.2 °F 53.6 °F 64% 29.60 in 10.0 mi East 11.5 mph - N/A   Clear
3:56 PM 66.2 °F 53.6 °F 64% 29.60 in 10.0 mi East 9.2 mph - N/A   Partly Cloudy
4:16 PM 66.2 °F 53.6 °F 64% 29.60 in 10.0 mi East 5.8 mph - N/A   Scattered Clouds
4:56 PM 66.2 °F 55.4 °F 68% 29.60 in 10.0 mi East 4.6 mph - N/A   Clear
5:36 PM 68.0 °F 53.6 °F 60% 29.59 in 10.0 mi NE 3.5 mph - N/A   Clear
5:56 PM 69.8 °F 53.6 °F 56% 29.59 in 10.0 mi ENE 3.5 mph - N/A   Partly Cloudy
7:16 PM 69.8 °F 55.4 °F 60% 29.58 in 10.0 mi East 12.7 mph - N/A   Clear
8:16 PM 69.8 °F 53.6 °F 56% 29.58 in 10.0 mi SE 9.2 mph - N/A   Clear
8:36 PM 68.0 °F 53.6 °F 60% 29.59 in 10.0 mi SE 5.8 mph - N/A   Clear
8:56 PM 68.0 °F 53.6 °F 60% 29.59 in 10.0 mi ESE 5.8 mph - N/A   Clear
9:16 PM 68.0 °F 55.4 °F 64% 29.59 in 10.0 mi East 3.5 mph - N/A   Clear
9:36 PM 66.2 °F 55.4 °F 68% 29.59 in 10.0 mi NE 4.6 mph - N/A   Partly Cloudy
9:56 PM 66.2 °F 55.4 °F 68% 29.59 in 10.0 mi NE 5.8 mph - N/A   Partly Cloudy
10:16 PM 66.2 °F 55.4 °F 68% 29.60 in 10.0 mi NE 8.1 mph - N/A   Scattered Clouds
10:36 PM 64.4 °F 55.4 °F 73% 29.60 in 10.0 mi NE 6.9 mph - N/A   Partly Cloudy
10:56 PM 64.4 °F 55.4 °F 73% 29.60 in 10.0 mi NE 9.2 mph - N/A   Mostly Cloudy
11:16 PM 64.4 °F 55.4 °F 73% 29.61 in 10.0 mi ENE 10.4 mph - N/A   Mostly Cloudy
11:36 PM 64.4 °F 55.4 °F 73% 29.61 in 10.0 mi ENE 10.4 mph - N/A   Overcast
11:56 PM 64.4 °F 55.4 °F 73% 29.61 in 10.0 mi ENE 11.5 mph - N/A   Scattered Clouds